Location: *
(40.7190°N, 4.2480°W)
Time: 09:37:10
(UTC+00:00)

USA 215 - Pass Details

Date: 18 February 2020
Orbit: 1098 x 1110 km, 123.0° (Epoch: 08 March)

Event Time Altitude Azimuth Distance (km) Brightness Sun altitude
Rises 04:15:02 0° 46° (NE) 3,922 7.0 -33.3°
Reaches altitude 10° 04:17:50 10° 36° (NE) 2,965 6.0 -32.7°
Enters shadow 04:22:54 29° 345° (NNW) 1,910 4.4 -31.8°
